Regional Weather Roundup
Issued by NWS

Home | Current Version | Previous Version | Text Only | Print | Product List | Glossary Off
Versions: 1 2 3 4 5 6 7 8 9 10 11 12 13 14 15 16 17 18 19 20 21 22 23 24 25 26 27 28 29 30 31 32 33 34 35 36 37 38 39 40 41 42 43 44 45 46 47 48 49 50

000
ASUS43 KMKX 021121
RWRWI

WISCONSIN REGIONAL WEATHER ROUNDUP
NATIONAL WEATHER SERVICE MILWAUKEE/SULLIVAN WI
600 AM CDT SUN AUG 02 2015

NOTE: "FAIR" INDICATES FEW OR NO CLOUDS BELOW 12,000 FEET WITH NO
SIGNIFICANT WEATHER AND/OR OBSTRUCTIONS TO VISIBILITY.

WIZ001-002-006>008-014>016-023>028-021200-
NORTHWEST WISCONSIN

CITY           SKY/WX    TMP DP  RH WIND       PRES   REMARKS
SUPERIOR ARPT  PTCLDY    62  58  85 CALM      29.64F
ASHLAND        MOCLDY    66  64  93 NE7       29.64F
HAYWARD        TSTM      67  64  90 S7        29.68R
SIREN          CLOUDY    63  61  92 CALM      29.66F
CUMBERLAND     PTCLDY    66  63  88 CALM      29.68F
RICE LAKE      MOCLDY    66  63  90 CALM      29.71R
CHETEK         PTCLDY    69  66  89 CALM      29.71R
LADYSMITH      PTCLDY    64  63  94 CALM      29.70R
EAU CLAIRE     CLEAR     68  65  90 S8        29.65F
MENOMONIE      CLEAR     69  64  83 CALM      29.67R
NEW RICHMOND   PTCLDY    67  65  92 CALM      29.68R
OSCEOLA        PTCLDY    69  68  99 CALM      29.70F
$$

WIZ003>005-009-010-017-018-021200-
NORTH CENTRAL WISCONSIN

CITY           SKY/WX    TMP DP  RH WIND       PRES   REMARKS
MANITOWISH WTR MOCLDY    63  63 100 CALM      29.69F
ARBOR VITAE    MOCLDY    63  61  94 CALM      29.69F
WOODRUFF       MOCLDY    63  61  94 CALM      29.69F
RHINELANDER    PTCLDY    65  63  93 SW6       29.70F
EAGLE RIVER    MOCLDY    62  61  98 CALM      29.69F
LAND O LAKES   MOCLDY    56  56  99 CALM      29.69F
PHILLIPS       CLOUDY    65  64  97 SE3       29.69R
TOMAHAWK       CLEAR     60  59  96 CALM      29.71S FOG
MEDFORD        CLEAR     65  64  96 S7        29.70R
MERRILL        NOT AVBL
$$

WIZ029-030-035-036-043>047-021200-
CENTRAL WISCONSIN

CITY           SKY/WX    TMP DP  RH WIND       PRES   REMARKS
WAUSAU         PTCLDY    65  64  97 E5        29.68F
MOSINEE        PTCLDY    66  66 100 S7        29.72F
MARSHFIELD     PTCLDY    65  62  90 SW7       29.70F FOG
STEVENS POINT  PTCLDY    65  64  98 S5        29.71F
WAUPACA        CLOUDY    67  65  91 CALM      29.73F
WAUTOMA        CLOUDY    63  62  96 S5        29.74F
WISC RAPIDS    PTCLDY    69  65  86 S6        29.72F
CAMP DOUGLAS   PTCLDY    73  73 100 SW7       29.72F
$$

WIZ011>013-019>022-031-037>040-048>050-021200-
NORTHEAST WISCONSIN

CITY           SKY/WX    TMP DP  RH WIND       PRES   REMARKS
ANTIGO         PTCLDY    63  62  98 SW6       29.71F
SHAWANO        MOCLDY    66  63  88 S5        29.71F
OCONTO         MOCLDY    65  65 100 SW5       29.69F
STURGEON BAY   MOCLDY    70  63  78 SW12      29.72S
GREEN BAY      LGT RAIN  68  65  90 S5        29.74S
MANITOWOC      MOCLDY    73  66  78 MISG      29.75F
APPLETON       MOCLDY    70  64  83 SW7       29.74F
CLINTONVILLE   MOCLDY    64  63  94 S5        29.70F
OSHKOSH        MOCLDY    68  64  87 S8        29.75F
$$

WIZ032>034-041-042-053>061-021200-
SOUTHWEST WISCONSIN

CITY           SKY/WX    TMP DP  RH WIND       PRES   REMARKS
LA CROSSE      MOCLDY    74  68  81 VRB6      29.71F
SPARTA         PTCLDY    71  66  87 CALM      29.73F
VIROQUA        PTCLDY    71  70  97 SW9       29.78S
BOSCOBEL       CLEAR     69  67  93 SW3       29.78S
PRAIRIE DU CHI PTCLDY    73  67  79 SW7       29.77S
PLATTEVILLE    CLEAR     70  69  96 SW7       29.82S
$$

WIZ056-057-062-063-064-067-068-021200-
SOUTH CENTRAL WISCONSIN

CITY           SKY/WX    TMP DP  RH WIND       PRES   REMARKS
REEDSBURG      MOCLDY    72  69  90 SW8       29.75F
BARABOO/DELLS  MOCLDY    72  67  84 SW13      29.75F
LONE ROCK      PTCLDY    69  66  90 CALM      29.78F
MINERAL POINT  PTCLDY    72  70  94 SW8       29.81F
MADISON        MOCLDY    74  68  81 VRB6      29.78F
MIDDLETON      PTCLDY    73  68  85 W9        29.79F
WATERTOWN      MOCLDY    69  69 100 S5        29.79S
MONROE         PTCLDY    68  68 100 SW10      29.82F
JANESVILLE     MOCLDY    70  68  94 S6        29.81F
$$

WIZ051-052-058>065-066-070>072-021200-
SOUTHEAST WISCONSIN

CITY           SKY/WX    TMP DP  RH WIND       PRES   REMARKS
MILWAUKEE      CLOUDY    73  66  78 NW7       29.80F
WAUKESHA       PTCLDY    72  66  83 SW7       29.82F
MILWAUKEE/TIMM MOCLDY    72  64  78 SW10      29.80S
RACINE         CLOUDY    72  67  84 SW12      29.83F
BURLINGTON     MOCLDY    68  66  94 SW5       29.82F
KENOSHA        MOCLDY    73  69  87 SW12      29.83S
FOND DU LAC    PTCLDY    69  67  93 S6        29.76F
SHEBOYGAN      MOCLDY    67  64  90 SW7       29.76F
WEST BEND      PTCLDY    72  64  78 SW10G17   29.78S
JUNEAU         PTCLDY    69  67  93 S9        29.79F
$$

LSZ147-162-021200-
LAKE SUPERIOR

STATION/POSITION TIME  TEMP    WIND        PRES    WAVE
                       AIR SEA DIR/SP/G            HT/PER
                 (UTC) (F)     (DEG/KT/KT) (MB)    (FT/S)
W MID LAKE BUOY  1050   57 54   50/  8/ 10 1002.3F   2/ 3
DEVILS ISLAND    1100   65     190/  5/  6 1002.5F
PORT WING        1000   65     340/  6/  9 1005.1
SAXON HARBOR     1040   68                 1004.4S
$$

LMZ867-665-643>646-021200-
LAKE MICHIGAN

STATION/POSITION TIME  TEMP    WIND        PRES    WAVE
                       AIR SEA DIR/SP/G            HT/PER
                 (UTC) (F)     (DEG/KT/KT) (MB)    (FT/S)
CHAMBERS ISLAND  1000   68     200/  3/  6 1005.8F
S GREEN BAY BUOY 1100   70 67  220/ 16/ 19 1007.8R
N MID LAKE BUOY  1050   70 68  190/ 14/ 16 1004.7F   2/ 4
NORTHPORT PIER   1100   65     170/  4/  7 1005.1F
ALGOMA LAKESHORE 1012          200/ 10/ 11   N/A
KEWAUNEE LAKESHO 1000   69     230/  5/  7 1006.5F
SHEBOYGAN LAKESH 1100   69     200/  8/  8 1007.7F
PORT WASHINGTON  1000   73     250/  4/  7 1009.1F
ATWATER BUOY     1100   72 58  230/ 14/ 17 1010.0F
MILWAUKEE LAKESH 1100   74     240/ 12/ 15   N/A
KENOSHA   LAKESH 1100   75     240/  9/ 14 1009.8S
$$

TC  - TEMPERATURE IN CELSIUS
VSB - VISIBILITY IN STATUTE MILES
WCI - WIND CHILL INDEX
HX  - HEAT INDEX



USA.gov is the U.S. government's official web portal to all federal, state and local government web resources and services.